York, PA

11:38 PM EDT on May 21, 2018 (GMT -0400)
York

Weather History for KTHV - June, 2013

Change the Weather History Date:

Thursday, June 13, 2013

  Actual Average Record
Temperature  
Mean Temperature 74 °F -  
Max Temperature 82 °F 82 °F 93 °F (2017)
Min Temperature 66 °F 61 °F 50 °F (2006)
Cooling Degree Days 8    
Growing Degree Days 24 (Base 50)    
Moisture  
Dew Point 62 °F    
Average Humidity 74    
Maximum Humidity 94    
Minimum Humidity 56    
Precipitation  
Precipitation 0.02 in - - ()
Sea Level Pressure  
Sea Level Pressure 29.62 in    
Wind  
Wind Speed 8 mph (WSW)    
Max Wind Speed 25 mph    
Max Gust Speed 34 mph    
Visibility 7 miles    
Events Fog , Rain , Thunderstorm    
Averages and records for this station are not official NWS values.
T = Trace of Precipitation, MM = Missing Value Source: NWS Daily Summary

Daily Weather History Graph

Daily Weather History Graph

Search for Another Location

Airport or City:

Astronomy

Jun. 13, 2013 Rise Set
Actual Time 5:38 AM EDT 8:37 PM EDT
Civil Twilight 5:05 AM EDT 9:09 PM EDT
Nautical Twilight 4:24 AM EDT 9:51 PM EDT
Astronomical Twilight 3:36 AM EDT 10:39 PM EDT
Moon 10:12 AM EDT (6/13) 11:42 PM EDT (6/13)
Length of Visible Light 16h 04m
Length of Day
14h 58m
Waxing Crescent, 21% of the Moon is Illuminated
Jun 13
Waxing Crescent
Jun 16
First Quarter
Jun 23
Full
Jun 30
Last Quarter
Jul 8
New

Hourly Weather History & Observations

Time (EDT) Temp. Heat Index Dew Point Humidity Pressure Visibility Wind Dir Wind Speed Gust Speed Precip Events Conditions
12:53 AM 72.0 °F - 64.9 °F 78% 29.80 in 8.0 mi SSE 4.6 mph - N/A   Mostly Cloudy
1:53 AM 73.0 °F - 64.0 °F 73% 29.78 in 8.0 mi Calm Calm - N/A   Scattered Clouds
2:53 AM 72.0 °F - 64.0 °F 76% 29.76 in 7.0 mi Calm Calm - N/A   Partly Cloudy
3:53 AM 73.0 °F - 63.0 °F 71% 29.73 in 8.0 mi Variable 3.5 mph - N/A   Clear
4:53 AM 72.0 °F - 64.0 °F 76% 29.71 in 7.0 mi SSW 3.5 mph - N/A   Partly Cloudy
5:53 AM 70.0 °F - 64.0 °F 81% 29.68 in 6.0 mi SE 8.1 mph - N/A   Haze
6:53 AM 70.0 °F - 64.0 °F 81% 29.66 in 5.0 mi SSE 11.5 mph 17.3 mph N/A   Haze
7:32 AM 69.8 °F - 64.4 °F 83% 29.62 in 5.0 mi SSE 11.5 mph 20.7 mph N/A Thunderstorm Haze
7:53 AM 70.0 °F - 64.9 °F 84% 29.67 in 5.0 mi West 16.1 mph 26.5 mph N/A Thunderstorm Haze
7:59 AM 69.8 °F - 64.4 °F 83% 29.73 in 1.5 mi WNW 25.3 mph 34.5 mph 0.16 in Rain , Thunderstorm Heavy Thunderstorms and Rain
8:01 AM 69.8 °F - 64.4 °F 83% 29.74 in 0.8 mi WNW 21.9 mph 34.5 mph 0.35 in Rain , Thunderstorm Heavy Thunderstorms and Rain
8:07 AM 66.2 °F - 64.4 °F 94% 29.68 in 0.2 mi WSW 8.1 mph 34.5 mph 0.85 in Fog , Rain , Thunderstorm Heavy Thunderstorms and Rain
8:16 AM 66.2 °F - 62.6 °F 88% 29.68 in 0.5 mi SW 8.1 mph - 0.94 in Fog , Rain , Thunderstorm Thunderstorms and Rain
8:19 AM 66.2 °F - 62.6 °F 88% 29.69 in 1.5 mi WSW 9.2 mph - 0.95 in Rain , Thunderstorm Thunderstorms and Rain
8:21 AM 66.2 °F - 62.6 °F 88% 29.69 in 2.5 mi WSW 6.9 mph - 0.95 in Rain , Thunderstorm Thunderstorms and Rain
8:28 AM 66.2 °F - 62.6 °F 88% 29.67 in 4.0 mi SSW 5.8 mph - 0.97 in Rain , Thunderstorm Thunderstorms and Rain
9:53 AM 68.0 °F - 63.0 °F 84% 29.60 in 10.0 mi SSW 13.8 mph - 0.02 in Rain Light Rain
10:53 AM 75.0 °F - 64.0 °F 69% 29.55 in 10.0 mi West 9.2 mph 26.5 mph 0.00 in   Partly Cloudy
11:53 AM 78.1 °F - 64.0 °F 62% 29.54 in 10.0 mi WSW 10.4 mph 16.1 mph N/A   Scattered Clouds
12:53 PM 78.1 °F - 61.0 °F 56% 29.51 in 10.0 mi WSW 8.1 mph 20.7 mph N/A   Clear
1:53 PM 79.0 °F - 63.0 °F 58% 29.50 in 10.0 mi WSW 11.5 mph 19.6 mph N/A   Partly Cloudy
2:53 PM 81.0 °F 82.5 °F 64.0 °F 56% 29.48 in 10.0 mi WSW 11.5 mph 21.9 mph N/A   Clear
3:53 PM 81.0 °F 82.7 °F 64.9 °F 58% 29.47 in 10.0 mi WSW 6.9 mph - N/A   Mostly Cloudy
4:53 PM 78.1 °F - 62.1 °F 58% 29.45 in 10.0 mi West 9.2 mph - 0.00 in Rain Light Rain
5:53 PM 77.0 °F - 61.0 °F 58% 29.46 in 10.0 mi West 10.4 mph 18.4 mph 0.00 in   Mostly Cloudy
6:53 PM 73.0 °F - 61.0 °F 66% 29.47 in 10.0 mi West 9.2 mph 18.4 mph 0.00 in   Overcast
7:53 PM 70.0 °F - 57.9 °F 65% 29.52 in 10.0 mi WNW 16.1 mph 24.2 mph 0.00 in Rain Light Rain
8:53 PM 66.9 °F - 59.0 °F 76% 29.54 in 10.0 mi WNW 10.4 mph - 0.00 in Rain Light Rain
9:53 PM 68.0 °F - 57.9 °F 70% 29.55 in 10.0 mi WNW 11.5 mph 21.9 mph 0.00 in   Overcast
10:53 PM 68.0 °F - 55.9 °F 65% 29.57 in 10.0 mi NW 10.4 mph 21.9 mph N/A   Overcast
11:53 PM 66.0 °F - 54.0 °F 65% 29.60 in 10.0 mi North 13.8 mph 20.7 mph N/A   Overcast